Nome, AK

7:58 PM AKDT on April 26, 2018 (GMT -0800)
Nome

Weather History for PAOM - December, 2011

Change the Weather History Date:

Saturday, December 31, 2011

  Actual Average Record
Temperature  
Mean Temperature -28 °F 7 °F  
Max Temperature -23 °F 14 °F 37 °F (2000)
Min Temperature -32 °F -1 °F -37 °F (1948)
Degree Days  
Heating Degree Days 93 58  
Month to date heating degree days 1811 1720  
Since 1 July heating degree days 6273 5813  
Cooling Degree Days 0 0  
Month to date cooling degree days 0 0  
Year to date cooling degree days 0 3  
Moisture  
Dew Point -33 °F    
Average Humidity 0    
Maximum Humidity 0    
Minimum Humidity 0    
Precipitation  
Precipitation T in 0.04 in 0.67 in (1997)
Month to date precipitation 2.17 1.08  
Year to date precipitation 18.45 16.81  
Snow  
Snow T in 0.50 in 14.00 in (1997)
Month to date snowfall 27.7 14.5  
Since 1 July snowfall 44.2 31.8  
Snow Depth 23.00 in    
Sea Level Pressure  
Sea Level Pressure 29.97 in    
Wind  
Wind Speed 1 mph (NNE)    
Max Wind Speed 5 mph    
Max Gust Speed 6 mph    
Visibility 10 miles    
Events Snow    
T = Trace of Precipitation, MM = Missing Value Source: NWS Daily Summary

Daily Weather History Graph

Daily Weather History Graph

Search for Another Location

Airport or City:

Astronomy

Dec. 31, 2011 Rise Set
Actual Time 12:00 PM AKST 4:09 PM AKST
Civil Twilight 10:40 AM AKST 5:29 PM AKST
Nautical Twilight 9:31 AM AKST 6:38 PM AKST
Astronomical Twilight 8:30 AM AKST 7:39 PM AKST
Moon 12:38 PM AKST (12/31) 1:58 AM AKST (12/31)
Length of Visible Light 6h 48m
Length of Day
4h 08m
Waxing Crescent, 46% of the Moon is Illuminated
Dec 31
Waxing Crescent
Dec 31
First Quarter
Jan 8
Full
Jan 16
Last Quarter
Jan 22
New

Hourly Weather History & Observations

Time (AKST) Temp. Windchill Dew Point Humidity Pressure Visibility Wind Dir Wind Speed Gust Speed Precip Events Conditions
12:53 AM -29.9 °F -42.0 °F -35.0 °F 77% 29.85 in 10.0 mi NNE 3.5 mph - N/A   Mostly Cloudy
1:53 AM -31.0 °F -43.3 °F -34.6 °F 83% 29.87 in 10.0 mi North 3.5 mph - N/A   Mostly Cloudy
2:53 AM -31.0 °F - -34.6 °F 83% 29.88 in 10.0 mi Calm Calm - N/A   Scattered Clouds
3:53 AM -29.9 °F - -36.0 °F 72% 29.90 in 10.0 mi Calm Calm - N/A   Mostly Cloudy
4:53 AM -29.9 °F - -36.0 °F 72% 29.91 in 10.0 mi Calm Calm - N/A   Mostly Cloudy
5:53 AM -31.0 °F - -36.4 °F 75% 29.92 in 10.0 mi Calm Calm - N/A   Mostly Cloudy
6:48 AM -29.2 °F - -36.4 °F 68% 29.92 in 10.0 mi Calm Calm - N/A   Mostly Cloudy
6:53 AM -29.9 °F - -36.9 °F 69% 29.93 in 10.0 mi Calm Calm - N/A   Mostly Cloudy
7:53 AM -29.0 °F - -32.1 °F 85% 29.94 in 10.0 mi Calm Calm - N/A   Mostly Cloudy
8:38 AM -29.2 °F - - N/A% 29.94 in 10.0 mi Calm Calm - 0.00 in   Scattered Clouds
8:53 AM -29.0 °F - -34.1 °F 77% 29.95 in 10.0 mi Calm Calm - 0.00 in   Partly Cloudy
9:53 AM -27.9 °F - -32.1 °F 81% 29.97 in 10.0 mi Calm Calm - N/A   Scattered Clouds
10:53 AM -27.9 °F - -33.0 °F 77% 29.99 in 10.0 mi Calm Calm - N/A   Mostly Cloudy
11:53 AM -29.0 °F - -33.0 °F 81% 29.99 in 7.0 mi Calm Calm - 0.00 in Snow Light Snow
12:53 PM -27.0 °F - -29.9 °F 86% 30.00 in 10.0 mi Calm Calm - 0.00 in   Scattered Clouds
1:53 PM -27.0 °F -38.7 °F -31.0 °F 81% 30.02 in 10.0 mi NNE 3.5 mph - N/A   Scattered Clouds
2:53 PM -26.0 °F -37.5 °F -29.9 °F 81% 30.02 in 10.0 mi North 3.5 mph - 0.00 in Snow Light Snow
4:53 PM -27.0 °F - -31.0 °F 81% 30.02 in 10.0 mi Calm Calm - N/A   Mostly Cloudy
5:53 PM -26.0 °F - -31.0 °F 77% 30.03 in 7.0 mi Calm Calm - N/A   Overcast
6:06 PM -25.6 °F - -29.2 °F 83% 30.03 in 8.0 mi Calm Calm - N/A   Mostly Cloudy
6:53 PM -25.1 °F - -29.0 °F 82% 30.03 in 7.0 mi Calm Calm - N/A   Overcast
7:53 PM -25.1 °F -36.5 °F -29.9 °F 78% 30.03 in 8.0 mi NE 3.5 mph - N/A   Overcast
8:53 PM -27.9 °F - -33.0 °F 77% 30.04 in 10.0 mi Calm Calm - N/A   Mostly Cloudy
9:53 PM -27.0 °F - -29.9 °F 86% 30.04 in 10.0 mi Calm Calm - N/A   Clear
10:53 PM - - - N/A% 30.04 in 10.0 mi Calm Calm - N/A   Clear
11:53 PM -29.0 °F -41.0 °F -34.1 °F 77% 30.03 in 10.0 mi NE 3.5 mph - N/A   Clear